MYNN Airport Information

Runway Information
Runway 09 Length 8273 ft width 150 ft
Elevation 14 ft Threshold 0 ft Heading 90
Runway 27 Length 8273 ft Width 150 ft
Elevation 13 ft Threshold 0 ft Heading 270
Runway 14 Length 11353 ft width 150 ft
Elevation 13 ft Threshold 0 ft Heading 135
Runway 32 Length 11353 ft Width 150 ft
Elevation 14 ft Threshold 0 ft Heading 315
Airport Frequencies
Type APP Name APP Frequency 121 MHZ
Type ATIS Name ATIS Frequency 118.7 MHZ
Type CLD Name CLNC DEL Frequency 118.3 MHZ
Type CTAF Name CTAF Frequency 122.95 MHZ
Type GND Name GND Frequency 121.7 MHZ
Type RDO Name RDO Frequency 128 MHZ
Type TWR Name TWR Frequency 119.5 MHZ
Type UNIC Name UNICOM Frequency 123 MHZ
Airport Navaids
Type VOR-DME Name Nassau Frequency 112700 KHZ
Type NDB Name Nassau Frequency 251 KHZ
Airport Weather Information & NOTAM
ADDS - METARS form results

(1129 UTC 21 April 2018)
 
METAR text: MYNN 211100Z 06003KT 9999 SCT018CB 24/21 A3009
Conditions at: MYNN (NASSAU INTL , BS) observed 1100 UTC 21 April 2018
Temperature: 24.0°C (75°F)
Dewpoint: 21.0°C (70°F) [RH = 83%]
Pressure (altimeter): 30.09 inches Hg (1019.0 mb)
Winds: from the ENE (60 degrees) at 3 MPH (3 knots; 1.6 m/s)
Visibility: 6 or more miles (10+ km)
Ceiling: at least 12,000 feet AGL
Clouds: scattered clouds at 1800 feet AGL
Weather: no significant weather observed at this time